sat.trackr.live / text

‹ back to catalog

STARLINK-34992

NORAD 65412 · 2025-192J

PAYLOAD ACTIVE UNKNOWN

§ Identity

Operator
Country
US
Launch date
2025-08-31
Launch site
AFETR
Launch vehicle
Mass (kg)
RCS (m²)

Purposes: comms

External: N2YO · Heavens-Above · Gunter

§ Orbital elements

Epoch: 2026-05-24T17:37:34.906656Z

Period
94.01 min
Inclination
53.1592°
Eccentricity
0.0000668
Mean motion
15.31721188 rev/d
Perigee alt
470.2 km
Apogee alt
471.1 km
Semi-major
6,848.8 km
B*
6.8757e-4
RAAN
238.6629°
Arg perigee
76.5449°
Mean anomaly
283.5627°
Rev number
4,101

§ Raw data

STARLINK-349921 65412U 25192J   26144.73443179  .00021045  00000+0  68757-3 0  99992 65412  53.1592 238.6629 0000668  76.5449 283.5627 15.31721188 41012

JSON: /api/v1/satellites/65412 · /tle

For live sub-satellite position, see the globe view (requires WebGL).

§ Visibility from observer

Set your observer location to see the next 7 days of passes ≥ 10°. The values pass through the URL so the page stays shareable.

No JS? Fill the form by hand. The geolocation button needs JavaScript.